Regional Weather Roundup
Issued by NWS Upton, NY

Current Version | Previous Version | Text Only | Print | Product List | Glossary On
Versions: 1 2 3 4 5 6 7 8 9 10 11 12 13 14 15 16 17 18 19 20 21 22 23 24 25 26
000
ASUS41 KOKX 271904
RWROKX

REGIONAL WEATHER ROUNDUP
NATIONAL WEATHER SERVICE NEW YORK NY
300 PM EDT WED APR 27 2016

NOTE: "FAIR" INDICATES FEW OR NO CLOUDS BELOW 12,000 FEET WITH NO
SIGNIFICANT WEATHER AND/OR OBSTRUCTIONS TO VISIBILITY.

NYZ071-072-176-178-NJZ106-104-272000-
NEW YORK CITY METRO AREA


CITY           SKY/WX    TMP DP  RH WIND       PRES   REMARKS
CENTRAL PARK   MOSUNNY   59  38  45 CALM      29.90F
LAGUARDIA APRT PTSUNNY   58  41  53 S12       29.88F
KENNEDY INTL   PTSUNNY   53  40  61 S10       29.92F
NEWARK/LIBERTY PTSUNNY   59  41  51 S7        29.88F
BRNX BOT. GARD   N/A     59  41  51 E9        29.90S
TETERBORO      SUNNY     61  37  41 CALM      29.86F
$$

NYZ177-179-078>081-272000-
LONG ISLAND NEW YORK

CITY           SKY/WX    TMP DP  RH WIND       PRES   REMARKS
FARMINGDALE    SUNNY     53  41  63 S9        29.90F
ISLIP          MOSUNNY   52  40  63 S9        29.90F
SHIRLEY        SUNNY     52  40  63 S9        29.91F
RIVERHEAD        N/A     55  43  62 W3        29.89F
WESTHAMPTON    SUNNY     48  37  65 S10       29.92F
EAST HAMPTON   FAIR      50  38  64 S8        29.91F
MONTAUK POINT    N/A     50  39  66 S7        29.92F
$$

NYZ052-065-067-272000-
HUDSON VALLEY

CITY           SKY/WX    TMP DP  RH WIND       PRES   REMARKS
WHITE PLAINS   MOSUNNY   58  38  47 SW6       29.86F
NEWBURGH       MOSUNNY   59  34  38 VRB6      29.87F
MONTGOMERY     SUNNY     60  37  42 SW9       29.85F
POUGHKEEPSIE   SUNNY     60  31  33 CALM      29.86F
ALBANY         MOSUNNY   56  27  32 SW13      29.87F
$$

NJZ001-105-106-008-010-013-015-019>022-104-272000-
NEW JERSEY

CITY           SKY/WX    TMP DP  RH WIND       PRES   REMARKS
NEWARK/LIBERTY PTSUNNY   59  41  51 S7        29.88F
TETERBORO      SUNNY     61  37  41 CALM      29.86F
CALDWELL       PTSUNNY   59  41  51 VRB5      29.88F
MORRISTOWN     CLOUDY    59  45  58 W6        29.89F
SOMERVILLE     PTSUNNY   57  43  59 VRB3      29.88F
SUSSEX         MOSUNNY   60  41  49 CALM      29.86F
ANDOVER          N/A     57  41  55 VRB5      29.87F
TRENTON        CLOUDY    55  42  61 CALM      29.90F
MILLVILLE      CLOUDY    53  42  66 NE5       29.92S
ATLANTIC CITY  CLOUDY    51  42  71 E7        29.92F
WRIGHTSTOWN    NOT AVBL
TOMS RIVER     CLOUDY    50  39  66 SE5       29.93S
BELMAR         CLOUDY    50  41  71 SE6       29.92F
$$

PAZ047>061-062-071-272000-
EASTERN PENNSYLVANIA

CITY           SKY/WX    TMP DP  RH WIND       PRES   REMARKS
PHILADELPHIA   CLOUDY    54  41  61 E3        29.93S
ALLENTOWN      CLOUDY    57  45  64 SW7       29.90F
SCRANTON       SUNNY     59  25  27 N5        29.87F
$$

CTZ002-004>006-009-010-012-RIZ004-006-007-MAZ004-011-015-272000-
SOUTHERN NEW ENGLAND
 IN CT

CITY           SKY/WX    TMP DP  RH WIND       PRES   REMARKS
BRADLEY INTL   MOSUNNY   62  27  26 S10       29.83F
HARTFORD       SUNNY     62  30  29 SE8       29.84F
DANBURY        SUNNY     60  29  30 W6        29.87F
WTRBRY/OXFORD  SUNNY     57  27  30 W9        29.86F
BRIDGEPORT     SUNNY     55  23  28 S9        29.89F
MERIDEN        SUNNY     60  30  32 S16       29.86F
NEW HAVEN      SUNNY     54  26  34 S13       29.89F
CHESTER        FAIR      55  27  33 S10       29.87F
GROTON         SUNNY     51  45  79 S16       29.89F
WILLIMANTIC    SUNNY     61  22  22 NW7       29.85F

 IN RI

CITY           SKY/WX    TMP DP  RH WIND       PRES   REMARKS
PROVIDENCE     MOSUNNY   55  33  43 SE16      29.87F
BLOCK ISLAND   SUNNY     48  38  68 S16       29.91F
WESTERLY       SUNNY     51  37  58 S14       29.90F

 IN MA

CITY           SKY/WX    TMP DP  RH WIND       PRES   REMARKS
BOSTON         MOSUNNY   54  35  48 SE15      29.83F
WORCESTER      SUNNY     54  23  30 SW9       29.83F
WESTFIELD      SUNNY     62  22  21 NW14G21   29.84F
PROVINCETOWN   SUNNY     54  20  26 S9        29.88F
NANTUCKET      SUNNY     49  38  65 SW12      29.91F
$$

ANZ330-335-338-340-345-350-353-355-272000-
COASTAL MARINE OBSERVATIONS


STATION/POSITION TIME  SKY/WX   TEMP    WIND        PRES    VSBY  WAVE
                                AIR SEA DIR/SP/G                  HT/PER
                 (UTC)          (F)     (DEG/KT/KT) (MB)    (MI)  (FT/S)
NY HARB ENTRANCE 1750            47 53  160/  6/  8 1013.5          3/ 8
20S FIRE ISLAND  1750            45 50  120/  6/  8 1013.6          4/ 8
GREAT SOUTH BAY  1800            47 60  190/ 10/ 14   N/A
23 SSW MONTAUK P 1850            45 49  200/  6/  8 1012.8          4/ 8
15 E BARNEGAT LI 1822               51                N/A           4/ 8
HUDSON CANYON    1750            46 49              1013.1          5/ 8
KINGS POINT      1800            56 53              1012.2
EXECUTION ROCKS  NOT AVBL
CENTRAL LI SOUND 1815            51     200/ 10/ 10   N/A           0
EASTERN LI SOUND 1800            49 47  170/ 12/ 16   N/A
ROBBINS REEF     1818            50     160/ 13/ 15 1012.0
$$


>>>>>>>>>>>>>>>>>>>>>>>>>>>> KEY <<<<<<<<<<<<<<<<<<<<<<<<<<<
>                                                          <
>     SKY/WX - SKY CONDITION/PRESENT WEATHER               <
>     TMP    - TEMPERATURE IN FAHRENHEIT                   <
>     DP     - DEWPOINT IN FAHRENHEIT                      <
>     RH     - RELATIVE HUMIDITY IN PERCENT                <
>     WIND   - DIRECTION AND SPEED IN MPH                  <
>     PRES   - MEAN SEA LEVEL PRESSURE IN INCHES OF HG     <
>     WCI    - WIND CHILL INDEX                            <
>     VSB    - VISIBILITY IN MILES                         <
>     HX     - HEAT INDEX                                  <
>     TC     - TEMPERATURE IN CELSIUS                      <
>     VRB    - VARIABLE WIND DIRECTION                     <
>                                                          <
>>>>>>>>>>>>>>>>>>>>>>>>>>>> KEY <<<<<<<<<<<<<<<<<<<<<<<<<<<






USA.gov is the U.S. government's official web portal to all federal, state and local government web resources and services.